Regional Weather Roundup
Issued by NWS

Home | Current Version | Previous Version | Graphics & Text | Print | Product List | Glossary On
Versions: 1 2 3 4 5 6 7 8 9 10 11 12 13 14 15 16 17 18 19 20 21 22 23 24 25 26 27 28 29 30 31 32 33 34 35 36 37 38 39 40 41 42 43 44 45 46 47 48 49 50
000
ASUS43 KDTX 260810
RWRMI
MICHIGAN HOURLY REGIONAL WEATHER ROUNDUP
NATIONAL WEATHER SERVICE DETROIT/PONTIAC MI
400 AM EDT WED JUL 26 2017

NOTE: "FAIR" INDICATES FEW OR NO CLOUDS BELOW 12,000 FEET WITH NO
SIGNIFICANT WEATHER AND/OR OBSTRUCTION TO VISIBILITY.

MIZ047>049-052>055-059>063-066>070-074>076-081>083-260900-
SOUTHEAST LOWER MICHIGAN

CITY           SKY/WX    TMP DP  RH WIND       PRES   REMARKS
ADRIAN         PTCLDY    58  57  97 CALM      30.20S
ALMA           CLOUDY    63  56  77 SW6       30.16S
ANN ARBOR      FOG       51  51 100 CALM      30.19S VSB 1/4
BAD AXE        MOCLDY    61  58  90 S6        30.17S
CARO           PTCLDY    56  55  93 CALM      30.17S
DETROIT CITY   CLEAR     64  60  87 CALM      30.20R
DETROIT        MOCLDY    64  60  87 CALM      30.20S
FLINT          PTCLDY    57  56  96 S6        30.18F
GROSSE ILE     MOCLDY    70  63  78 S6        30.18R
HILLSDALE      PTCLDY    59  55  88 SE3       30.19F
HOWELL         PTCLDY    57  56  97 SE5       30.18F

CITY           SKY/WX    TMP DP  RH WIND       PRES   REMARKS
JACKSON        CLOUDY    61  56  83 S7        30.18F
LAMBERTVILLE   CLOUDY    57  56  97 CALM      30.19R FOG
LANSING        MOCLDY    64  56  75 S8        30.16F
LAPEER         FAIR      56  55  98 SE8       30.19F
MASON          MOCLDY    58  57  94 S3        30.17F
MONROE         PTCLDY    58  56  94 CALM      30.19R
MT. CLEMENS    CLEAR     64  61  93 S7        30.18S
PONTIAC        CLOUDY    61  60  97 CALM      30.19S
PORT HOPE        N/A     63  56  78 S6        30.14F
PORT HURON     FOG       57  55  94 CALM      30.20S VSB 3/4
TRI CITIES     CLOUDY    65  60  84 S6        30.16S
MIDLAND        FAIR      65  56  73 SW3       30.15S
TROY           CLEAR     64  59  86 CALM      30.22R
SAGINAW HB     PTCLDY    61  59  94 S5        30.15F
$$
MIZ043>046-050>051-056>058-064>065-071>073-077>080-260900-
SOUTHWEST LOWER MICHIGAN

CITY           SKY/WX    TMP DP  RH WIND       PRES   REMARKS
BATTLE CREEK   MOCLDY    63  58  83 S8        30.18S
BENTON HARBOR  CLOUDY    65  58  78 SE7       30.14F
BIG RAPIDS     PTCLDY    63  55  75 S3        30.14S
COLDWATER      PTCLDY    59  59 100 SE3       30.18S
FREMONT        FAIR      62  59  91 S5        30.13F
HOLLAND        MOCLDY    66  58  75 S3        30.16S
GRAND RAPIDS   MOCLDY    66  59  78 S5        30.16R
IONIA          FAIR      65  56  73 S5        30.15S
KALAMAZOO      PTCLDY    64  56  75 S7        30.17S
LUDINGTON      CLOUDY    67  59  76 S8        30.09F
MARSHALL       PTCLDY    62  60  94 SE3       30.17F
MOUNT PLEASANT CLOUDY    68  54  61 S7        30.15R
MUSKEGON       CLOUDY    70  58  65 S10       30.13S
SOUTH HAVEN    CLOUDY    66  60  81 S6        30.15F
$$
MIZ016>042-260900-
NORTHERN LOWER MICHIGAN

CITY           SKY/WX    TMP DP  RH WIND       PRES   REMARKS
ALPENA         CLOUDY    67  60  78 S8        30.12R
BEAVER ISLAND  RAIN      66  63  90 SW10G21   30.06F
BELLAIRE       CLOUDY    67  58  73 CALM      30.10R
CADILLAC       CLOUDY    66  54  64 SW8       30.13F
CHARLEVOIX     CLOUDY    68  60  76 S6        30.10S
FRANKFORT      CLOUDY    73  56  55 S12G21    30.08F
GAYLORD        CLOUDY    66  53  63 S10       30.12F
GRAYLING       CLOUDY    66  51  57 S6        30.14R
HARBOR SPRINGS CLOUDY    68  58  72 SW5       30.08S
HOUGHTON LAKE  CLOUDY    67  54  63 S10       30.14F
MANISTEE       CLOUDY    65  57  75 VRB3      30.09F
OSCODA         CLOUDY    66  59  78 S9G17     30.13S
PELLSTON       CLOUDY    64  60  87 CALM      30.08F
ROGERS CITY    CLOUDY    66  58  76 SW5       30.13R
TRAVERSE CITY  CLOUDY    68  59  73 CALM      30.08F
$$
MIZ007>008-015-260900-
EASTERN UPPER MICHIGAN

CITY           SKY/WX    TMP DP  RH WIND       PRES   REMARKS
KINROSS        TSTM      63  61  94 VRB5      30.06F
MACKINAC ISLAN CLOUDY    66  61  83 S8        30.07F
NEWBERRY       CLOUDY    63  62  97 S13G20    30.01F
S. S. MARIE    LGT RAIN  65  61  87 SW5       30.06F
MUNISING         N/A     69  63  81 S8G21     29.95F
$$
MIZ004>006-011>014-085-260900-
CENTRAL UPPER MICHIGAN

CITY           SKY/WX    TMP DP  RH WIND       PRES   REMARKS
MANISTIQUE     CLOUDY    65  62  89 S13G21    30.01F
ESCANABA       LGT RAIN  67  64  90 S10       29.99F
MENOMINEE      CLOUDY    71  63  75 SW13G18   30.00F
SAWYER-GWINN   CLOUDY    64  61  91 S9        29.99F
$$
MIZ001>003-009>011-084-260900-
WESTERN UPPER MICHIGAN

CITY           SKY/WX    TMP DP  RH WIND       PRES   REMARKS
IRON MOUNTAIN  CLOUDY    67  61  81 SW3       29.98F
HOUGHTON       TSTM      69  65  86 W14G23    29.88F FOG
COPPER HARBOR    N/A     70  62  76 W8        29.88S
IRONWOOD       CLOUDY    69  66  90 SW6       29.93F
$$

ABBREVIATIONS USED IN REMARKS
   TC - TEMPERATURE IN CELSIUS
  WCI - WIND CHILL INDEX
   HX - HEAT INDEX
  VSB - VISIBILITY




USA.gov is the U.S. government's official web portal to all federal, state and local government web resources and services.